Tracking 19176 objects as of 25-May-2018
HD Live streaming from Space Station
objects crossing your sky now

FENGYUN 1C DEB

Track FENGYUN 1C DEB now!
10-day predictions


NORAD ID: 30172
Int'l Code: 1999-025UD
Perigee: 840.9 km
Apogee: 963.1 km
Inclination: 99.1 °
Period: 102.9 minutes
Semi major axis: 7272 km
RCS: 0.0441 m2 (small)
Launch date: May 10, 1999
Source: People's Republic of China (PRC)
Launch site: Taiyaun Space Center, China (TSC)

Note: This is SATELLITE DEBRIS
aabbcc
Your satellite tracking list
Your tracking list is empty




NASA's NSSDC Master Catalog

Two Line Element Set (TLE):
1 30172U 99025UD  18144.79862501 +.00000277 +00000-0 +21333-3 0  9995
2 30172 099.0524 075.1717 0084039 265.9424 163.2210 13.99692149578387
Source of the keplerian elements: AFSPC